Tracking 25193 objects as of 17-Jan-2022
HD Live streaming from Space Station
objects crossing your sky now

AMC-7 (GE-7)

Track AMC-7 (GE-7) now!
AMC-7 (GE-7) is classified as:


NORAD ID: 26495
Int'l Code: 2000-054B
Perigee: 36,107.9 km
Apogee: 36,122.1 km
Inclination: 2.8 °
Period: 1,452.5 minutes
Semi major axis: 42485 km
RCS: 22.9975 m2 (large)
Launch date: September 14, 2000
Source: SOCIETE EUROPEENNE DES SATELLITES (SES)
Launch site: FRENCH GUIANA (FRGUI)

Cable programming; 24 C-band; CONUS, Alaska, Hawaii, Caribbean
aabbcc
Your satellite tracking list
Your tracking list is empty




NASA's NSSDC Master Catalog

Two Line Element Set (TLE):
1 26495U 00054B   22017.57767223 -.00000284  00000-0  00000-0 0  9991
2 26495   2.7926  88.9607 0001674  61.2105 319.3281  0.99136705 77994
Source of the keplerian elements: AFSPC